| time (UTC) | temp C | wind direction | speed KPH | gust KPH | rain 1hr cm | rain 24hr cm | rain mn cm | humidity % | barometer mb |
| 20260507052512 | 2 | 112 | 0.0 | 0.0 | 0.00 | 0.00 | 0.00 | 91 | 1011.1 |
| 20260507052012 | 1 | 112 | 0.0 | 0.0 | 0.00 | 0.00 | 0.00 | 91 | 1011.1 |
| 20260507051511 | 1 | 112 | 0.0 | 1.6 | 0.00 | 0.00 | 0.00 | 91 | 1011.2 |
| 20260507051012 | 1 | 112 | 0.0 | 0.0 | 0.00 | 0.00 | 0.00 | 91 | 1011.2 |
| 20260507050512 | 1 | 112 | 0.0 | 0.0 | 0.00 | 0.00 | 0.00 | 91 | 1011.1 |
| 20260507050012 | 1 | 112 | 0.0 | 0.0 | 0.00 | 0.00 | 0.00 | 91 | 1011.2 |
| 20260507045511 | 1 | 112 | 0.0 | 0.0 | 0.00 | 0.00 | 0.00 | 91 | 1011.3 |
| 20260507045011 | 0 | 112 | 0.0 | 0.0 | 0.00 | 0.00 | 0.00 | 90 | 1011.4 |
| 20260507044511 | 0 | 112 | 0.0 | 0.0 | 0.00 | 0.00 | 0.00 | 90 | 1011.2 |
| 20260507044011 | 0 | 112 | 0.0 | 0.0 | 0.00 | 0.00 | 0.00 | 90 | 1011.5 |
| 20260507043511 | 0 | 112 | 0.0 | 0.0 | 0.00 | 0.00 | 0.00 | 90 | 1011.4 |
| 20260507043011 | 0 | 112 | 0.0 | 0.0 | 0.00 | 0.00 | 0.00 | 90 | 1011.1 |
| 20260507042511 | 0 | 112 | 0.0 | 0.0 | 0.00 | 0.00 | 0.00 | 90 | 1011.3 |
| 20260507042012 | 0 | 112 | 0.0 | 0.0 | 0.00 | 0.00 | 0.00 | 90 | 1011.4 |
| 20260507041512 | 0 | 112 | 0.0 | 0.0 | 0.00 | 0.00 | 0.00 | 90 | 1011.4 |
| 20260507041011 | 0 | 112 | 0.0 | 0.0 | 0.00 | 0.00 | 0.00 | 90 | 1011.5 |
| 20260507040514 | 0 | 112 | 0.0 | 0.0 | 0.00 | 0.00 | 0.00 | 90 | 1011.5 |
| 20260507040011 | 0 | 112 | 0.0 | 0.0 | 0.00 | 0.00 | 0.00 | 90 | 1011.5 |
| 20260507035512 | 0 | 112 | 0.0 | 0.0 | 0.00 | 0.00 | 0.00 | 90 | 1011.5 |
| 20260507035011 | 0 | 112 | 0.0 | 0.0 | 0.00 | 0.00 | 0.00 | 90 | 1011.5 |
| 20260507034511 | 0 | 112 | 0.0 | 0.0 | 0.00 | 0.00 | 0.00 | 90 | 1011.7 |
| 20260507034012 | 0 | 112 | 0.0 | 0.0 | 0.00 | 0.00 | 0.00 | 90 | 1011.6 |
| 20260507033511 | 0 | 112 | 0.0 | 0.0 | 0.00 | 0.00 | 0.00 | 90 | 1011.6 |
| 20260507033011 | 0 | 112 | 0.0 | 0.0 | 0.00 | 0.00 | 0.00 | 90 | 1011.6 |
| 20260507032510 | 1 | 112 | 0.0 | 0.0 | 0.00 | 0.00 | 0.00 | 89 | 1011.6 |
| 20260507032011 | 1 | 112 | 0.0 | 0.0 | 0.00 | 0.00 | 0.00 | 89 | 1011.6 |
| 20260507031511 | 1 | 112 | 0.0 | 0.0 | 0.00 | 0.00 | 0.00 | 89 | 1011.8 |
| 20260507031011 | 1 | 112 | 0.0 | 0.0 | 0.00 | 0.00 | 0.00 | 89 | 1011.7 |
| 20260507030511 | 1 | 112 | 0.0 | 0.0 | 0.00 | 0.00 | 0.00 | 89 | 1011.7 |
| 20260507030011 | 1 | 112 | 0.0 | 0.0 | 0.00 | 0.00 | 0.00 | 89 | 1011.6 |
| 20260507025511 | 1 | 112 | 0.0 | 0.0 | 0.00 | 0.00 | 0.00 | 89 | 1011.7 |
| 20260507025011 | 1 | 112 | 0.0 | 0.0 | 0.00 | 0.00 | 0.00 | 89 | 1011.6 |
| 20260507024512 | 1 | 112 | 0.0 | 0.0 | 0.00 | 0.00 | 0.00 | 89 | 1011.5 |
| 20260507024011 | 1 | 112 | 0.0 | 0.0 | 0.00 | 0.00 | 0.00 | 89 | 1011.5 |
| 20260507023512 | 1 | 103 | 0.0 | 0.0 | 0.00 | 0.00 | 0.00 | 90 | 1011.5 |
| 20260507023011 | 1 | 112 | 0.0 | 0.0 | 0.00 | 0.00 | 0.00 | 90 | 1011.8 |
| 20260507022512 | 1 | 112 | 0.0 | 0.0 | 0.00 | 0.00 | 0.00 | 90 | 1011.7 |
| 20260507022013 | 1 | 112 | 0.0 | 0.0 | 0.00 | 0.00 | 0.00 | 90 | 1011.8 |
| 20260507021513 | 1 | 112 | 0.0 | 0.0 | 0.00 | 0.00 | 0.00 | 90 | 1011.8 |
| 20260507021014 | 1 | 112 | 0.0 | 0.0 | 0.00 | 0.00 | 0.00 | 90 | 1011.8 |
| 20260507020514 | 1 | 112 | 0.0 | 0.0 | 0.00 | 0.00 | 0.00 | 90 | 1011.9 |
| 20260507020012 | 1 | 112 | 0.0 | 0.0 | 0.00 | 0.00 | 0.00 | 90 | 1011.8 |
| 20260507015512 | 1 | 112 | 0.0 | 0.0 | 0.00 | 0.00 | 0.00 | 89 | 1011.8 |
| 20260507015011 | 1 | 112 | 0.0 | 0.0 | 0.00 | 0.00 | 0.00 | 89 | 1012.0 |
| 20260507014511 | 1 | 112 | 0.0 | 1.6 | 0.00 | 0.00 | 0.00 | 89 | 1011.9 |
| 20260507014010 | 1 | 112 | 0.0 | 0.0 | 0.00 | 0.00 | 0.00 | 89 | 1012.1 |
| 20260507013512 | 1 | 112 | 0.0 | 0.0 | 0.00 | 0.00 | 0.00 | 89 | 1012.1 |
| 20260507013011 | 1 | 112 | 0.0 | 0.0 | 0.00 | 0.00 | 0.00 | 89 | 1012.1 |
| 20260507012511 | 2 | 112 | 0.0 | 0.0 | 0.00 | 0.00 | 0.00 | 89 | 1012.1 |
| 20260507012011 | 2 | 112 | 0.0 | 0.0 | 0.00 | 0.00 | 0.00 | 89 | 1012.1 |
| 20260507011510 | 2 | 112 | 0.0 | 0.0 | 0.00 | 0.00 | 0.00 | 89 | 1012.1 |
| 20260507011011 | 2 | 112 | 0.0 | 0.0 | 0.00 | 0.00 | 0.00 | 89 | 1012.1 |
| 20260507010511 | 2 | 112 | 0.0 | 0.0 | 0.00 | 0.00 | 0.00 | 89 | 1012.1 |
| 20260507010011 | 2 | 112 | 0.0 | 0.0 | 0.00 | 0.00 | 0.00 | 89 | 1012.2 |
| 20260507005511 | 2 | 112 | 0.0 | 0.0 | 0.00 | 0.00 | 0.00 | 89 | 1012.2 |
| 20260507005012 | 2 | 112 | 0.0 | 0.0 | 0.00 | 0.00 | 0.00 | 89 | 1012.3 |
| 20260507004511 | 2 | 112 | 0.0 | 0.0 | 0.00 | 0.00 | 0.00 | 89 | 1012.2 |
| 20260507004011 | 2 | 112 | 0.0 | 0.0 | 0.00 | 0.00 | 0.00 | 89 | 1012.5 |
| 20260507003510 | 2 | 112 | 0.0 | 0.0 | 0.00 | 0.00 | 0.00 | 89 | 1012.3 |
| 20260507003011 | 2 | 112 | 0.0 | 0.0 | 0.00 | 0.00 | 0.00 | 89 | 1012.5 |
| 20260507002511 | 2 | 112 | 0.0 | 0.0 | 0.00 | 0.00 | 0.00 | 89 | 1012.5 |
| 20260507002011 | 2 | 112 | 0.0 | 0.0 | 0.00 | 0.00 | 0.00 | 89 | 1012.5 |
| 20260507001511 | 2 | 112 | 0.0 | 0.0 | 0.00 | 0.00 | 0.00 | 89 | 1012.3 |
| 20260507001011 | 2 | 90 | 0.0 | 0.0 | 0.00 | 0.00 | 0.00 | 89 | 1012.4 |
| 20260507000511 | 3 | 90 | 0.0 | 0.0 | 0.00 | 0.00 | 0.00 | 89 | 1012.3 |
| 20260507000011 | 3 | 90 | 0.0 | 0.0 | 0.00 | 0.00 | 0.00 | 89 | 1012.5 |
| 20260506235510 | 3 | 90 | 0.0 | 0.0 | 0.00 | 0.00 | 0.00 | 89 | 1012.4 |
| 20260506235011 | 3 | 90 | 0.0 | 0.0 | 0.00 | 0.00 | 0.00 | 89 | 1012.6 |
| 20260506234511 | 3 | 90 | 0.0 | 0.0 | 0.00 | 0.00 | 0.00 | 89 | 1012.5 |
| 20260506234011 | 3 | 90 | 0.0 | 0.0 | 0.00 | 0.00 | 0.00 | 89 | 1012.6 |
| 20260506233511 | 3 | 90 | 0.0 | 0.0 | 0.00 | 0.00 | 0.00 | 89 | 1012.5 |
| 20260506233011 | 3 | 90 | 0.0 | 0.0 | 0.00 | 0.00 | 0.00 | 88 | 1012.5 |
| 20260506232510 | 3 | 90 | 0.0 | 0.0 | 0.00 | 0.00 | 0.00 | 88 | 1012.6 |
| 20260506232011 | 3 | 105 | 0.0 | 0.0 | 0.00 | 0.00 | 0.00 | 88 | 1012.6 |
| 20260506231511 | 3 | 88 | 0.0 | 0.0 | 0.00 | 0.00 | 0.00 | 88 | 1012.6 |
| 20260506231011 | 3 | 22 | 0.0 | 0.0 | 0.00 | 0.00 | 0.00 | 88 | 1012.6 |
| 20260506230511 | 3 | 22 | 0.0 | 0.0 | 0.00 | 0.00 | 0.00 | 88 | 1012.7 |
| 20260506230014 | 3 | 22 | 0.0 | 0.0 | 0.00 | 0.00 | 0.00 | 88 | 1012.8 |
| 20260506225512 | 3 | 22 | 0.0 | 0.0 | 0.00 | 0.00 | 0.00 | 88 | 1012.8 |
| 20260506225011 | 3 | 22 | 0.0 | 0.0 | 0.00 | 0.00 | 0.00 | 88 | 1012.8 |
| 20260506224511 | 3 | 22 | 0.0 | 0.0 | 0.00 | 0.00 | 0.00 | 88 | 1012.8 |
| 20260506224010 | 3 | 22 | 0.0 | 0.0 | 0.00 | 0.00 | 0.00 | 88 | 1012.7 |
| 20260506223510 | 3 | 22 | 0.0 | 0.0 | 0.00 | 0.00 | 0.00 | 88 | 1012.7 |
| 20260506223011 | 3 | 22 | 0.0 | 0.0 | 0.00 | 0.00 | 0.00 | 88 | 1012.7 |
| 20260506222512 | 4 | 45 | 0.0 | 0.0 | 0.00 | 0.00 | 0.00 | 88 | 1012.9 |
| 20260506222012 | 4 | 45 | 0.0 | 0.0 | 0.00 | 0.00 | 0.00 | 88 | 1012.9 |
| 20260506221510 | 4 | 45 | 0.0 | 0.0 | 0.00 | 0.00 | 0.00 | 88 | 1012.9 |
| 20260506221014 | 4 | 45 | 0.0 | 0.0 | 0.00 | 0.00 | 0.00 | 88 | 1012.9 |
| 20260506220511 | 4 | 45 | 0.0 | 0.0 | 0.00 | 0.00 | 0.00 | 88 | 1012.9 |
| 20260506220010 | 4 | 45 | 0.0 | 0.0 | 0.00 | 0.00 | 0.00 | 87 | 1013.0 |
| 20260506215510 | 4 | 45 | 0.0 | 0.0 | 0.00 | 0.00 | 0.00 | 87 | 1012.9 |
| 20260506215011 | 4 | 45 | 0.0 | 0.0 | 0.00 | 0.00 | 0.00 | 87 | 1012.9 |
| 20260506214510 | 5 | 45 | 0.0 | 0.0 | 0.00 | 0.00 | 0.00 | 87 | 1012.9 |
| 20260506214011 | 5 | 45 | 0.0 | 0.0 | 0.00 | 0.00 | 0.00 | 87 | 1012.9 |
| 20260506213511 | 5 | 45 | 0.0 | 0.0 | 0.00 | 0.00 | 0.00 | 87 | 1012.9 |
| 20260506213011 | 5 | 45 | 0.0 | 0.0 | 0.00 | 0.00 | 0.00 | 87 | 1012.9 |
| 20260506212510 | 5 | 45 | 0.0 | 0.0 | 0.00 | 0.00 | 0.00 | 87 | 1012.9 |
| 20260506212011 | 5 | 45 | 0.0 | 0.0 | 0.00 | 0.00 | 0.00 | 87 | 1012.9 |
| 20260506211511 | 5 | 45 | 0.0 | 0.0 | 0.00 | 0.00 | 0.00 | 86 | 1012.9 |
| 20260506211011 | 5 | 45 | 0.0 | 0.0 | 0.00 | 0.00 | 0.00 | 86 | 1012.9 |
| 20260506210511 | 5 | 45 | 0.0 | 0.0 | 0.00 | 0.00 | 0.00 | 86 | 1013.0 |
| 20260506210010 | 5 | 45 | 0.0 | 0.0 | 0.00 | 0.00 | 0.00 | 86 | 1012.9 |
| 20260506205512 | 5 | 45 | 0.0 | 0.0 | 0.00 | 0.00 | 0.00 | 86 | 1012.9 |
| 20260506205011 | 6 | 45 | 0.0 | 0.0 | 0.00 | 0.00 | 0.00 | 86 | 1013.0 |
| 20260506204511 | 6 | 45 | 0.0 | 0.0 | 0.00 | 0.00 | 0.00 | 85 | 1012.9 |
| 20260506204011 | 6 | 45 | 0.0 | 0.0 | 0.00 | 0.00 | 0.00 | 85 | 1012.9 |
| 20260506203511 | 6 | 45 | 0.0 | 0.0 | 0.00 | 0.00 | 0.00 | 85 | 1012.9 |
| 20260506203012 | 6 | 45 | 0.0 | 0.0 | 0.00 | 0.00 | 0.00 | 85 | 1013.0 |
| 20260506202512 | 6 | 45 | 0.0 | 0.0 | 0.00 | 0.00 | 0.00 | 85 | 1012.9 |
| 20260506202011 | 6 | 45 | 0.0 | 0.0 | 0.00 | 0.00 | 0.00 | 85 | 1012.9 |
| 20260506201511 | 6 | 45 | 0.0 | 0.0 | 0.00 | 0.00 | 0.00 | 84 | 1012.9 |
| 20260506201010 | 6 | 45 | 0.0 | 0.0 | 0.00 | 0.00 | 0.00 | 84 | 1012.8 |
| 20260506200511 | 7 | 45 | 0.0 | 0.0 | 0.00 | 0.00 | 0.00 | 84 | 1012.7 |
| 20260506200010 | 7 | 45 | 0.0 | 0.0 | 0.00 | 0.00 | 0.00 | 83 | 1012.7 |
| 20260506195511 | 7 | 45 | 0.0 | 0.0 | 0.00 | 0.00 | 0.00 | 82 | 1012.6 |
| 20260506195011 | 7 | 45 | 0.0 | 0.0 | 0.00 | 0.00 | 0.00 | 82 | 1012.5 |
| 20260506194511 | 7 | 45 | 0.0 | 0.0 | 0.00 | 0.00 | 0.00 | 82 | 1012.6 |
| 20260506194010 | 7 | 45 | 0.0 | 0.0 | 0.00 | 0.00 | 0.00 | 81 | 1012.4 |
| 20260506193511 | 7 | 45 | 0.0 | 0.0 | 0.00 | 0.00 | 0.00 | 81 | 1012.3 |
| 20260506193012 | 8 | 45 | 0.0 | 0.0 | 0.00 | 0.00 | 0.00 | 80 | 1012.4 |
| 20260506192510 | 8 | 45 | 0.0 | 0.0 | 0.00 | 0.00 | 0.00 | 80 | 1012.3 |
| 20260506192011 | 8 | 45 | 0.0 | 0.0 | 0.00 | 0.00 | 0.00 | 80 | 1012.2 |
| 20260506191511 | 8 | 45 | 0.0 | 0.0 | 0.00 | 0.00 | 0.00 | 79 | 1012.2 |
| 20260506191013 | 8 | 45 | 0.0 | 0.0 | 0.00 | 0.00 | 0.00 | 79 | 1012.4 |
| 20260506190511 | 9 | 45 | 0.0 | 0.0 | 0.00 | 0.00 | 0.00 | 78 | 1012.3 |
| 20260506190010 | 9 | 45 | 0.0 | 0.0 | 0.00 | 0.00 | 0.00 | 78 | 1012.3 |
| 20260506185512 | 9 | 31 | 0.0 | 0.0 | 0.00 | 0.00 | 0.00 | 78 | 1012.2 |
| 20260506185013 | 10 | 158 | 0.0 | 0.0 | 0.00 | 0.00 | 0.00 | 77 | 1012.2 |
| 20260506184512 | 10 | 90 | 0.0 | 0.0 | 0.00 | 0.00 | 0.00 | 76 | 1012.2 |
| 20260506184012 | 10 | 112 | 0.0 | 0.0 | 0.00 | 0.00 | 0.00 | 75 | 1012.2 |
| 20260506183511 | 10 | 104 | 0.0 | 1.6 | 0.00 | 0.00 | 0.00 | 74 | 1012.2 |
| 20260506183011 | 10 | 90 | 0.0 | 0.0 | 0.00 | 0.00 | 0.00 | 74 | 1012.1 |
| 20260506182511 | 11 | 135 | 0.0 | 0.0 | 0.00 | 0.00 | 0.00 | 74 | 1012.1 |
| 20260506182010 | 11 | 338 | 0.0 | 0.0 | 0.00 | 0.00 | 0.00 | 73 | 1011.9 |
| 20260506181511 | 11 | 2 | 0.0 | 0.0 | 0.00 | 0.00 | 0.00 | 73 | 1011.8 |
| 20260506181011 | 11 | 22 | 0.0 | 0.0 | 0.00 | 0.00 | 0.00 | 73 | 1011.9 |
| 20260506180511 | 11 | 22 | 0.0 | 0.0 | 0.00 | 0.00 | 0.00 | 73 | 1011.9 |
| 20260506180011 | 11 | 11 | 0.0 | 0.0 | 0.00 | 0.00 | 0.00 | 73 | 1012.0 |
| 20260506175511 | 11 | 340 | 0.0 | 0.0 | 0.00 | 0.00 | 0.00 | 72 | 1011.9 |
| 20260506175011 | 11 | 325 | 0.0 | 0.0 | 0.00 | 0.00 | 0.00 | 72 | 1012.0 |
| 20260506174511 | 11 | 0 | 0.0 | 1.6 | 0.00 | 0.00 | 0.00 | 71 | 1012.0 |
| 20260506174010 | 11 | 21 | 0.0 | 0.0 | 0.00 | 0.00 | 0.00 | 71 | 1012.0 |
| 20260506173510 | 11 | 315 | 0.0 | 4.8 | 0.00 | 0.00 | 0.00 | 71 | 1012.0 |
| 20260506173010 | 11 | 68 | 0.0 | 3.2 | 0.00 | 0.00 | 0.00 | 70 | 1012.0 |
| 20260506172511 | 11 | 355 | 0.0 | 4.8 | 0.00 | 0.00 | 0.00 | 69 | 1012.1 |
| 20260506172010 | 12 | 6 | 1.6 | 8.0 | 0.00 | 0.00 | 0.00 | 69 | 1011.9 |
| 20260506171510 | 12 | 27 | 0.0 | 1.6 | 0.00 | 0.00 | 0.00 | 68 | 1012.1 |
| 20260506171010 | 13 | 325 | 1.6 | 4.8 | 0.00 | 0.00 | 0.00 | 67 | 1012.1 |
| 20260506170514 | 13 | 36 | 1.6 | 4.8 | 0.00 | 0.00 | 0.00 | 66 | 1012.1 |
| 20260506170009 | 13 | 36 | 0.0 | 9.7 | 0.00 | 0.00 | 0.00 | 65 | 1012.1 |
| 20260506165511 | 14 | 29 | 1.6 | 4.8 | 0.00 | 0.05 | 0.00 | 66 | 1012.1 |
| 20260506165011 | 14 | 34 | 3.2 | 8.0 | 0.00 | 0.10 | 0.00 | 65 | 1012.1 |
| 20260506164510 | 14 | 73 | 0.0 | 9.7 | 0.00 | 0.15 | 0.00 | 66 | 1012.1 |
| 20260506164011 | 14 | 5 | 3.2 | 9.7 | 0.00 | 0.20 | 0.00 | 66 | 1012.1 |
| 20260506163511 | 14 | 338 | 0.0 | 3.2 | 0.00 | 0.20 | 0.00 | 66 | 1011.9 |
| 20260506163011 | 15 | 29 | 3.2 | 8.0 | 0.00 | 0.20 | 0.00 | 65 | 1012.1 |
| 20260506162510 | 15 | 315 | 0.0 | 3.2 | 0.00 | 0.20 | 0.00 | 65 | 1012.1 |
| 20260506162011 | 15 | 0 | 1.6 | 4.8 | 0.00 | 0.20 | 0.00 | 65 | 1012.1 |
| 20260506161511 | 15 | 317 | 0.0 | 3.2 | 0.00 | 0.20 | 0.00 | 63 | 1012.0 |
| 20260506161012 | 15 | 21 | 1.6 | 8.0 | 0.00 | 0.20 | 0.00 | 62 | 1012.0 |
| 20260506160510 | 16 | 14 | 0.0 | 9.7 | 0.00 | 0.20 | 0.00 | 61 | 1012.1 |
| 20260506160010 | 16 | 147 | 0.0 | 3.2 | 0.00 | 0.20 | 0.00 | 63 | 1012.2 |
| 20260506155510 | 16 | 128 | 1.6 | 4.8 | 0.00 | 0.20 | 0.00 | 62 | 1012.2 |
| 20260506155009 | 16 | 2 | 1.6 | 3.2 | 0.00 | 0.20 | 0.00 | 62 | 1012.2 |
| 20260506154510 | 16 | 334 | 0.0 | 1.6 | 0.00 | 0.20 | 0.00 | 62 | 1012.3 |
| 20260506154012 | 16 | 303 | 1.6 | 8.0 | 0.00 | 0.20 | 0.00 | 63 | 1012.3 |
| 20260506153511 | 15 | 336 | 0.0 | 3.2 | 0.00 | 0.20 | 0.00 | 63 | 1012.4 |
| 20260506153010 | 16 | 6 | 0.0 | 1.6 | 0.00 | 0.20 | 0.00 | 62 | 1012.2 |
| 20260506152509 | 16 | 332 | 1.6 | 9.7 | 0.00 | 0.20 | 0.00 | 62 | 1012.3 |
| 20260506152010 | 16 | 336 | 0.0 | 9.7 | 0.00 | 0.20 | 0.00 | 61 | 1012.3 |
| 20260506151511 | 16 | 338 | 1.6 | 8.0 | 0.00 | 0.20 | 0.00 | 61 | 1012.3 |
| 20260506151013 | 16 | 342 | 1.6 | 4.8 | 0.00 | 0.20 | 0.00 | 62 | 1012.3 |
| 20260506150511 | 16 | 335 | 1.6 | 8.0 | 0.00 | 0.20 | 0.00 | 62 | 1012.3 |
| 20260506150010 | 16 | 321 | 1.6 | 19.3 | 0.00 | 0.20 | 0.00 | 62 | 1012.4 |
| 20260506145511 | 16 | 331 | 1.6 | 8.0 | 0.00 | 0.20 | 0.00 | 63 | 1012.4 |
| 20260506145010 | 15 | 23 | 1.6 | 8.0 | 0.00 | 0.20 | 0.00 | 64 | 1012.4 |
| 20260506144510 | 15 | 279 | 0.0 | 4.8 | 0.00 | 0.20 | 0.00 | 65 | 1012.5 |
| 20260506144010 | 15 | 6 | 1.6 | 9.7 | 0.00 | 0.20 | 0.00 | 65 | 1012.6 |
| 20260506143510 | 15 | 341 | 1.6 | 4.8 | 0.00 | 0.20 | 0.00 | 66 | 1012.6 |
| 20260506143010 | 14 | 19 | 1.6 | 3.2 | 0.00 | 0.20 | 0.00 | 66 | 1012.8 |
| 20260506142511 | 14 | 45 | 0.0 | 3.2 | 0.00 | 0.20 | 0.00 | 64 | 1012.8 |
| 20260506142010 | 15 | 28 | 0.0 | 0.0 | 0.00 | 0.20 | 0.00 | 63 | 1012.7 |
| 20260506141510 | 15 | 338 | 0.0 | 3.2 | 0.00 | 0.20 | 0.00 | 62 | 1012.7 |
| 20260506141010 | 16 | 26 | 0.0 | 3.2 | 0.00 | 0.20 | 0.00 | 61 | 1012.7 |
| 20260506140511 | 16 | 1 | 0.0 | 1.6 | 0.00 | 0.20 | 0.00 | 61 | 1012.7 |
| 20260506140010 | 17 | 183 | 1.6 | 4.8 | 0.00 | 0.20 | 0.00 | 62 | 1012.7 |
| 20260506135510 | 16 | 175 | 1.6 | 8.0 | 0.00 | 0.20 | 0.00 | 61 | 1012.8 |
| 20260506135011 | 16 | 325 | 0.0 | 1.6 | 0.00 | 0.20 | 0.00 | 61 | 1012.8 |
| 20260506134510 | 16 | 52 | 0.0 | 1.6 | 0.00 | 0.20 | 0.00 | 62 | 1012.8 |
| 20260506134010 | 16 | 45 | 0.0 | 0.0 | 0.00 | 0.20 | 0.00 | 61 | 1012.8 |
| 20260506133510 | 16 | 22 | 0.0 | 4.8 | 0.00 | 0.20 | 0.00 | 61 | 1012.8 |
| 20260506133011 | 16 | 16 | 0.0 | 4.8 | 0.00 | 0.20 | 0.00 | 60 | 1012.9 |
| 20260506132513 | 16 | 291 | 0.0 | 3.2 | 0.00 | 0.20 | 0.00 | 60 | 1012.8 |
| 20260506132010 | 16 | 327 | 0.0 | 0.0 | 0.00 | 0.20 | 0.00 | 59 | 1012.9 |
| 20260506131511 | 17 | 348 | 0.0 | 11.3 | 0.00 | 0.20 | 0.00 | 59 | 1012.7 |
| 20260506131011 | 17 | 43 | 1.6 | 11.3 | 0.00 | 0.20 | 0.00 | 60 | 1012.8 |
| 20260506130510 | 17 | 36 | 0.0 | 9.7 | 0.00 | 0.20 | 0.00 | 60 | 1012.7 |
| 20260506130010 | 16 | 354 | 0.0 | 3.2 | 0.00 | 0.20 | 0.00 | 60 | 1012.8 |
| 20260506125510 | 16 | 350 | 0.0 | 1.6 | 0.00 | 0.20 | 0.00 | 61 | 1012.8 |
| 20260506125010 | 16 | 17 | 0.0 | 3.2 | 0.00 | 0.20 | 0.00 | 62 | 1012.7 |
| 20260506124511 | 16 | 68 | 0.0 | 1.6 | 0.00 | 0.20 | 0.00 | 61 | 1012.8 |
| 20260506124011 | 16 | 129 | 0.0 | 0.0 | 0.00 | 0.20 | 0.00 | 61 | 1012.7 |
| 20260506123510 | 16 | 120 | 0.0 | 4.8 | 0.00 | 0.20 | 0.00 | 61 | 1012.8 |
| 20260506123011 | 16 | 22 | 1.6 | 4.8 | 0.00 | 0.25 | 0.00 | 61 | 1012.7 |
| 20260506122512 | 15 | 30 | 0.0 | 4.8 | 0.00 | 0.30 | 0.00 | 63 | 1012.8 |
| 20260506122010 | 15 | 282 | 0.0 | 0.0 | 0.00 | 0.30 | 0.00 | 64 | 1012.6 |
| 20260506121510 | 15 | 0 | 0.0 | 0.0 | 0.00 | 0.30 | 0.00 | 64 | 1012.7 |
| 20260506121010 | 14 | 16 | 0.0 | 0.0 | 0.00 | 0.36 | 0.00 | 64 | 1012.8 |
| 20260506120511 | 15 | 307 | 0.0 | 0.0 | 0.00 | 0.36 | 0.00 | 63 | 1012.8 |
| 20260506120010 | 15 | 0 | 0.0 | 0.0 | 0.00 | 0.36 | 0.00 | 61 | 1012.7 |
| 20260506115510 | 15 | 22 | 0.0 | 4.8 | 0.00 | 0.36 | 0.00 | 60 | 1012.7 |
| 20260506115011 | 15 | 301 | 0.0 | 3.2 | 0.00 | 0.36 | 0.00 | 59 | 1012.7 |
| 20260506114510 | 16 | 22 | 0.0 | 0.0 | 0.00 | 0.36 | 0.00 | 57 | 1012.8 |
| 20260506114010 | 17 | 45 | 0.0 | 4.8 | 0.00 | 0.36 | 0.00 | 56 | 1012.7 |
| 20260506113509 | 18 | 18 | 0.0 | 3.2 | 0.00 | 0.41 | 0.00 | 55 | 1012.8 |
| 20260506113010 | 19 | 344 | 1.6 | 9.7 | 0.00 | 0.41 | 0.00 | 54 | 1012.6 |
| 20260506112510 | 19 | 31 | 0.0 | 9.7 | 0.00 | 0.41 | 0.00 | 54 | 1012.5 |
| 20260506112010 | 19 | 1 | 0.0 | 3.2 | 0.00 | 0.41 | 0.00 | 56 | 1012.7 |
| 20260506111510 | 18 | 132 | 0.0 | 1.6 | 0.00 | 0.41 | 0.00 | 59 | 1012.6 |
| 20260506111010 | 17 | 237 | 0.0 | 8.0 | 0.00 | 0.41 | 0.00 | 58 | 1012.7 |
| 20260506110510 | 17 | 6 | 0.0 | 11.3 | 0.00 | 0.41 | 0.00 | 57 | 1012.8 |
| 20260506110009 | 18 | 27 | 1.6 | 8.0 | 0.00 | 0.41 | 0.00 | 58 | 1012.9 |
| 20260506105510 | 18 | 331 | 1.6 | 8.0 | 0.00 | 0.41 | 0.00 | 59 | 1012.5 |
| 20260506105010 | 17 | 22 | 1.6 | 8.0 | 0.00 | 0.41 | 0.00 | 59 | 1012.6 |
| 20260506104511 | 17 | 19 | 0.0 | 3.2 | 0.00 | 0.41 | 0.00 | 59 | 1012.6 |
| 20260506104009 | 17 | 0 | 0.0 | 0.0 | 0.00 | 0.41 | 0.00 | 58 | 1012.6 |
| 20260506103510 | 17 | 336 | 0.0 | 4.8 | 0.00 | 0.41 | 0.00 | 58 | 1012.6 |
| 20260506103009 | 17 | 247 | 0.0 | 4.8 | 0.00 | 0.41 | 0.00 | 59 | 1012.6 |
| 20260506102510 | 17 | 2 | 1.6 | 9.7 | 0.00 | 0.41 | 0.00 | 60 | 1012.7 |
| 20260506102010 | 16 | 0 | 0.0 | 0.0 | 0.00 | 0.41 | 0.00 | 58 | 1012.6 |
| 20260506101510 | 17 | 358 | 1.6 | 4.8 | 0.00 | 0.41 | 0.00 | 57 | 1012.8 |
| 20260506101013 | 17 | 45 | 0.0 | 0.0 | 0.00 | 0.41 | 0.00 | 59 | 1012.6 |
| 20260506100510 | 17 | 315 | 0.0 | 3.2 | 0.00 | 0.41 | 0.00 | 59 | 1012.5 |
| 20260506100010 | 17 | 291 | 0.0 | 0.0 | 0.00 | 0.41 | 0.00 | 61 | 1012.5 |
| 20260506095510 | 16 | 0 | 0.0 | 1.6 | 0.00 | 0.41 | 0.00 | 61 | 1012.5 |
| 20260506095011 | 16 | 353 | 0.0 | 0.0 | 0.00 | 0.41 | 0.00 | 61 | 1012.5 |
| 20260506094509 | 16 | 22 | 0.0 | 0.0 | 0.00 | 0.41 | 0.00 | 61 | 1012.6 |
| 20260506094010 | 16 | 0 | 0.0 | 0.0 | 0.00 | 0.41 | 0.00 | 61 | 1012.5 |
| 20260506093510 | 16 | 338 | 0.0 | 0.0 | 0.00 | 0.41 | 0.00 | 61 | 1012.6 |
| 20260506093010 | 16 | 22 | 0.0 | 0.0 | 0.00 | 0.41 | 0.00 | 61 | 1012.7 |
| 20260506092509 | 16 | 0 | 0.0 | 1.6 | 0.00 | 0.41 | 0.00 | 62 | 1012.5 |
| 20260506092009 | 16 | 338 | 1.6 | 4.8 | 0.00 | 0.41 | 0.00 | 61 | 1012.5 |
| 20260506091509 | 16 | 338 | 0.0 | 3.2 | 0.00 | 0.41 | 0.00 | 61 | 1012.5 |
| 20260506091011 | 16 | 90 | 0.0 | 0.0 | 0.00 | 0.41 | 0.00 | 60 | 1012.5 |
| 20260506090513 | 16 | 141 | 0.0 | 0.0 | 0.00 | 0.41 | 0.00 | 60 | 1012.4 |
| 20260506090009 | 17 | 45 | 0.0 | 0.0 | 0.00 | 0.41 | 0.00 | 60 | 1012.4 |
| 20260506085510 | 17 | 0 | 0.0 | 0.0 | 0.00 | 0.41 | 0.00 | 58 | 1012.4 |
| 20260506085010 | 17 | 51 | 0.0 | 4.8 | 0.00 | 0.41 | 0.00 | 57 | 1012.5 |
| 20260506084509 | 18 | 3 | 0.0 | 4.8 | 0.00 | 0.41 | 0.00 | 56 | 1012.4 |
| 20260506084010 | 18 | 22 | 0.0 | 1.6 | 0.00 | 0.41 | 0.00 | 57 | 1012.4 |
| 20260506083510 | 18 | 315 | 0.0 | 0.0 | 0.00 | 0.41 | 0.00 | 57 | 1012.5 |
| 20260506083009 | 18 | 292 | 0.0 | 8.0 | 0.00 | 0.41 | 0.00 | 58 | 1012.4 |
| 20260506082510 | 18 | 182 | 1.6 | 9.7 | 0.00 | 0.41 | 0.00 | 58 | 1012.5 |
| 20260506082011 | 18 | 160 | 0.0 | 3.2 | 0.00 | 0.41 | 0.00 | 57 | 1012.4 |
| 20260506081510 | 19 | 292 | 0.0 | 1.6 | 0.00 | 0.41 | 0.00 | 56 | 1012.4 |
| 20260506081009 | 20 | 22 | 0.0 | 1.6 | 0.00 | 0.41 | 0.00 | 55 | 1012.4 |
| 20260506080511 | 20 | 90 | 0.0 | 0.0 | 0.00 | 0.41 | 0.00 | 56 | 1012.4 |
| 20260506073510 | 21 | 248 | 0.0 | 0.0 | 0.00 | 0.41 | 0.00 | 59 | 1012.2 |
| 20260506073009 | 20 | 338 | 0.0 | 0.0 | 0.00 | 0.41 | 0.00 | 60 | 1012.2 |
| 20260506072509 | 20 | 265 | 0.0 | 0.0 | 0.00 | 0.41 | 0.00 | 63 | 1012.3 |
| 20260506072010 | 19 | 22 | 0.0 | 0.0 | 0.00 | 0.41 | 0.00 | 67 | 1012.2 |
| 20260506071509 | 18 | 135 | 0.0 | 0.0 | 0.00 | 0.41 | 0.00 | 72 | 1012.2 |
| 20260506071009 | 16 | 158 | 0.0 | 0.0 | 0.00 | 0.41 | 0.00 | 83 | 1012.2 |
| 20260506070509 | 13 | 158 | 0.0 | 0.0 | 0.00 | 0.41 | 0.00 | 92 | 1012.2 |
| 20260506062510 | 8 | 158 | 0.0 | 0.0 | 0.00 | 0.41 | 0.00 | 94 | 1012.1 |
| 20260506062010 | 6 | 158 | 0.0 | 0.0 | 0.00 | 0.41 | 0.00 | 93 | 1012.1 |
| 20260506061509 | 6 | 158 | 0.0 | 0.0 | 0.00 | 0.41 | 0.00 | 93 | 1011.9 |
| 20260506061011 | 5 | 158 | 0.0 | 0.0 | 0.00 | 0.41 | 0.00 | 93 | 1011.9 |
| 20260506060510 | 5 | 158 | 0.0 | 0.0 | 0.00 | 0.41 | 0.00 | 92 | 1012.0 |